Погода в Салониках

Греция     40°37′56″N   22°56′08″E
темп.,
°C
ветер,
м/с
пор.,
м/с
влажн.,
%
обл.,
%
осадки,
мм/ч
давл.,
гПа
погр.,
м
11 мая, вт
вт1100:00+13ссз11715 0.0 102058
03:00+12св11755 0.0 101930
06:00+11в22745 0.0 101836
09:00+16юв11555 0.0 1018359
12:00+21ююз22460 0.0 10171053
15:00+23юз43441 0.0 10161232
18:00+21юз43505 0.0 1014631
21:00+16зюз127064 0.0 1014138
12 мая, ср
ср1200:00+14ссз11788 0.0 101579
03:00+13св11811 0.0 101333
06:00+12в11800 0.0 101233
09:00+17ююв12615 0.0 1011473
12:00+21ююз3341100 0.0 10101099
15:00+22юз5542100 0.0 10081003
18:00+22юз44445 0.0 1006804
21:00+17сз116373 0.0 100778
13 мая, чт
чт1300:00+15сз117254 0.0 100873
03:00+14с11770 0.0 100729
06:00+13св11770 0.0 100712
09:00+17зсз22600 0.0 1008348
12:00+23з23350 0.0 10071275
15:00+25юз44326 0.0 10061961
18:00+24юз5438100 0.0 1006980
21:00+19зсз125979 0.0 100780
14 мая, пт
пт1400:00+17ссв1168100 0.1 100872
03:00+14св118638 1.9 100832
06:00+13св11861 1.3 100914
09:00+17сз23600 1.3 1011325
12:00+22з23390 0.0 10111207
15:00+25юз45306 0.0 10112446
18:00+25юз343293 0.0 10111234
21:00+20юз23487 0.0 101293
15 мая, сб
сб1500:00+17св11575 0.0 101313
03:00+16ссв116095 0.0 101414
06:00+15всв11655 0.0 101313
09:00+19ю1154100 0.0 1014288
12:00+23ю1141100 0.0 1014859
15:00+25ююз443498 0.0 10121495
18:00+21зюз3550100 0.0 1010274
21:00+18всв1262100 0.1 1009142